Home > Weather > Holguín > Past weeks

Flag for Cuba Weather for the Past 2 Weeks in Holguín, Cuba

Now
79 °F

Passing clouds.


Feels Like: 80 °F
Forecast: N/A
Wind: 17 mph from East

Location: Holguin Civ / Mil

Current Time: Feb 14, 2016 at 4:19:45 PM

Latest Report: Feb 14, 2016 at 3:50 PM


Visibility: N/A

Pressure: 30.01 "Hg

Humidity: 48%

Dew point: 57 °F

Location of HolguínLocation

Historic Weather in Holguín — Graph

°F

Holguín Temperature Yesterday

Maximum temperature yesterday: 79 °F (at 12:50 PM)
Minimum temperature yesterday: 66 °F (at 11:50 PM)
Average temperature yesterday: 72 °F

High & Low Weather Summary for the Past Weeks

 TemperatureHumidityPressure
High88 °F (Feb 1, 1:50 PM)94% (Jan 30, 9:52 PM)30.21 "Hg (Jan 30, 9:52 PM)
Low57 °F (Feb 14, 6:50 AM)35% (Feb 4, 2:50 PM)29.92 "Hg (Feb 7, 2:56 PM)
Average73 °F77%30.05 "Hg
* Reported Jan 30 2:50 PM — Feb 14 2:50 PM, Holguín, Weather by CustomWeather, © 2016

Note: Actual official high and low records may vary slightly from our data, if they occured in-between our weather recording intervals... More about our weather records

Advertising

Holguín Weather History for the Previous 24 Hours

 ConditionsComfort  
Time TempWeatherWind HumidityBarometerVisibility
2:50 PM
Sun, Feb 14
79 °FPassing clouds.16 mph48%30.01 "HgN/A
1:50 PM79 °FPassing clouds.17 mph48%30.01 "HgN/A
12:50 PM77 °FPassing clouds.17 mph51%30.04 "HgN/A
11:50 AM79 °FPassing clouds.17 mph48%30.07 "HgN/A
10:50 AM77 °FPassing clouds.16 mph51%30.09 "HgN/A
9:50 AM77 °FPassing clouds.18 mph51%30.09 "HgN/A
8:50 AM73 °FPassing clouds.15 mph61%30.09 "HgN/A
7:52 AM64 °FPassing clouds.3 mph88%30.07 "HgN/A
6:50 AM57 °FSunny.2 mph94%30.07 "Hg6 mi
5:51 AM59 °FFog.1 mph94%30.04 "Hg4 mi
4:51 AM61 °FFog.2 mph94%30.04 "Hg4 mi
3:51 AM63 °FPassing clouds.1 mph94%30.04 "Hg6 mi
2:51 AM63 °FPassing clouds.1 mph94%30.04 "Hg6 mi
1:50 AM63 °FPassing clouds.1 mph94%30.07 "Hg6 mi
12:51 AM64 °FPassing clouds.1 mph88%30.09 "Hg6 mi
11:50 PM
Sat, Feb 13
66 °FPassing clouds.2 mph88%30.09 "Hg6 mi
10:50 PM70 °FPassing clouds.6 mph78%30.12 "Hg6 mi
9:50 PM72 °FPartly cloudy.8 mph73%30.12 "Hg6 mi
8:50 PM72 °FPassing clouds.9 mph73%30.09 "Hg6 mi
7:50 PM72 °FMostly cloudy.8 mph78%30.09 "Hg5 mi
6:50 PM70 °FMostly cloudy.7 mph88%30.09 "Hg5 mi
5:50 PM72 °FLight rain. Mostly cloudy.10 mph83%30.07 "Hg4 mi
4:50 PM72 °FScattered showers. Partly sunny.14 mph83%30.07 "Hg5 mi
Weather by CustomWeather, © 2016

See weather overviewHow to use our weather pages